Helicity
37 52 38 27 33 -3 -4 3 55 77 27 0 27 54 44 4 -47 14 -1 7 26 -7 11 37 7 20 38 46 42 36 32 27 -7 -4 -8 -18 10 -4 4 26 19 -4 1 6
64 47 21 8 24 50 63 6 23 117 38 0 35 50 22 -10 16 10 4 13 13 -20 21 29 24 26 30 48 46 41 30 27 -7 -10 25 10 7 -7 15 13 -1 7 -7 5
63 40 11 33 25 68 29 23 100 43 29 -6 14 61 46 61 33 16 17 -12 11 5 53 64 26 29 27 52 46 38 30 30 -20 32 25 13 30 -5 3 23 20 15 -7 8
51 21 32 58 33 37 23 20 64 -12 14 15 -11 67 49 65 45 19 30 19 1 29 83 85 72 24 22 49 20 30 19 12 -10 30 -31 -17 5 -6 9 18 10 34 1 -1
48 38 51 51 28 20 18 61 55 53 10 18 -13 77 140 70 50 23 40 -12 -3 -14 0 42 57 21 -13 49 18 13 3 -2 -5 -28 78 -12 25 57 3 146 37 42 10 1
21 37 21 15 10 17 53 72 52 21 29 43 17 17 50 45 21 29 36 8 6 65 -27 -22 40 64 -47 60 23 9 1 -6 -13 -3 -24 34 17 24 37 30 21 13 29 30
52 17 11 54 22 39 54 56 69 73 61 33 6 78 165 123 177 114 60 9 15 43 143 27 13 7 12 6 28 35 10 -15 -14 -5 -4 7 0 49 30 28 11 -36 27 32
53 79 78 50 48 48 31 0 39 84 56 28 21 116 151 88 100 146 185 112 60 6 0 88 54 -28 19 -11 33 20 36 4 -11 -10 -2 7 2 12 18 12 43 39 46 23
32 42 105 138 63 115 42 37 -5 37 -1 21 154 142 59 99 149 117 123 181 224 104 86 23 8 91 19 1 53 44 49 27 2 0 4 13 20 -2 16 15 20 25 40 17
105 111 12 48 123 142 140 32 41 48 59 31 216 159 96 143 160 146 168 195 215 265 114 86 96 89 129 20 76 51 39 42 23 11 13 11 11 11 7 23 19 29 54 38
85 61 15 42 93 41 79 120 46 60 43 55 107 155 205 156 161 155 165 186 220 247 305 260 290 192 52 57 48 63 38 28 28 32 20 17 19 23 20 20 16 11 10 42
31 68 -16 7 121 130 175 65 30 63 39 61 71 280 189 145 130 151 174 181 172 160 170 308 249 126 255 305 220 146 56 45 40 48 46 34 27 23 23 22 16 23 18 14
86 77 76 78 60 92 137 69 100 50 48 78 57 150 155 175 242 231 192 193 194 178 179 175 236 180 259 388 330 201 222 92 99 62 53 49 40 34 25 31 27 31 32 20
101 90 67 98 75 24 59 112 113 105 68 42 82 81 64 115 184 272 217 199 203 213 195 162 175 219 181 173 316 385 290 385 261 196 153 75 38 54 41 44 44 39 49 40
103 59 91 63 181 189 58 50 101 124 84 81 78 27 97 134 141 174 201 217 212 205 185 176 165 149 119 128 141 243 294 282 377 356 191 286 91 41 82 89 50 47 64 62
72 82 92 86 82 119 175 80 147 177 139 77 96 217 194 186 137 181 169 150 169 174 190 159 113 91 63 58 103 125 201 239 272 290 348 316 276 280 151 57 68 71 75 65
87 50 75 104 44 55 106 52 42 68 141 101 81 147 103 75 124 189 171 178 177 184 190 188 176 158 145 123 72 38 37 121 197 247 294 254 237 239 244 215 141 108 75 85
88 95 49 80 61 115 104 189 110 82 100 187 221 186 99 135 189 222 255 205 187 181 174 176 168 154 151 141 138 122 72 -10 17 143 197 226 234 233 218 208 197 119 106 105
121 97 79 70 51 48 60 71 94 53 100 150 181 267 259 166 129 121 149 177 162 160 153 155 154 149 131 138 139 143 127 112 82 34 46 109 163 198 218 228 235 261 163 119
58 86 133 86 111 46 183 174 202 157 94 170 183 144 145 109 41 175 97 115 134 154 146 147 142 134 128 123 127 142 141 133 123 125 81 62 68 113 143 179 162 155 188 147
62 67 59 67 98 90 103 104 49 70 160 161 120 165 192 204 355 325 171 127 96 82 89 115 125 128 122 108 111 112 128 129 112 107 108 84 60 81 58 60 94 113 124 130
68 90 72 84 76 82 92 50 108 189 126 140 185 187 184 237 201 186 157 117 100 88 73 65 83 103 112 124 115 106 97 118 114 99 95 97 83 65 49 75 96 93 106 108
85 59 130 91 145 187 80 160 141 132 109 138 107 80 75 78 96 117 132 126 125 112 111 96 85 77 81 91 97 127 120 85 80 107 114 101 95 85 55 72 51 80 71 100
35 70 80 128 68 86 86 98 95 91 111 84 102 95 85 101 93 93 107 118 134 128 114 95 94 89 87 111 117 112 86 98 96 72 77 87 88 89 82 50 77 86 94 119
38 49 35 32 59 39 47 56 62 82 75 76 71 66 75 69 71 85 80 78 80 82 73 69 53 53 53 62 66 76 86 96 79 96 95 67 69 82 86 68 49 62 62 80
33 39 54 54 51 37 41 55 63 63 50 49 38 42 45 56 70 62 67 65 69 73 65 58 59 44 50 52 52 55 59 104 92 95 90 113 118 88 96 112 94 -1 -71 -30
Wind_Speed
35 43 51 49 56 61 47 43 46 10 2 15 10 5 4 6 20 23 16 71 33 33 18 10 12 10 10 4 8 14 15 1 50 40 42 34 36 39 41 30 20 37 38 39
36 57 45 53 55 59 61 50 28 28 12 28 11 4 5 9 8 6 11 40 68 52 28 19 7 10 11 10 6 12 11 5 52 48 51 20 16 36 25 19 39 40 37 37
47 44 46 50 51 53 57 50 26 33 27 42 16 5 6 20 16 14 8 40 30 70 25 14 10 6 12 11 8 12 11 4 42 53 50 33 18 21 19 20 41 42 39 37
53 40 45 50 49 56 50 56 23 59 34 29 23 26 11 11 21 15 17 36 56 73 21 18 26 17 8 9 13 7 11 8 10 57 14 23 46 16 43 14 16 17 40 35
52 44 46 53 54 52 50 37 38 40 58 44 29 32 48 10 21 21 13 15 65 68 47 36 32 15 29 14 18 14 6 7 7 4 54 20 50 18 36 12 13 25 24 41
48 51 47 51 51 47 41 37 47 51 63 68 57 58 28 9 22 21 29 7 50 28 64 52 31 28 38 22 21 23 16 6 7 5 14 53 36 44 32 15 18 25 36 34
43 46 50 53 48 47 38 43 50 55 66 63 60 42 43 20 23 18 29 41 20 14 34 48 40 41 33 34 30 25 23 17 8 6 4 36 29 48 33 35 34 45 36 36
50 52 44 54 57 46 54 55 52 50 54 53 42 39 32 17 16 20 29 31 40 25 15 26 34 34 36 32 30 27 20 19 11 17 6 3 12 36 40 35 45 46 38 35
48 44 37 48 59 51 53 78 76 64 52 52 32 20 12 16 18 24 28 32 33 37 16 22 16 19 43 35 27 21 15 15 11 17 15 6 8 40 44 42 31 51 26 28
40 39 51 50 55 59 55 63 75 61 59 56 32 39 41 28 25 26 26 27 29 32 37 18 21 23 69 39 27 22 18 14 17 28 26 15 13 17 34 40 50 51 47 44
40 39 42 46 59 61 57 61 69 66 65 57 34 33 17 23 22 22 22 24 25 23 25 30 33 52 61 22 24 22 19 16 19 27 32 30 20 17 20 31 41 49 55 52
46 48 40 53 42 48 53 60 63 67 70 67 45 30 18 14 11 14 17 21 22 23 24 24 28 39 17 21 26 43 35 19 16 26 31 38 39 28 18 25 39 40 44 47
42 50 38 47 50 56 62 57 56 69 68 67 75 37 10 18 11 13 15 18 20 22 25 27 31 35 32 24 23 27 30 41 54 20 27 32 38 38 33 25 25 35 39 40
41 53 50 45 41 53 66 61 61 62 63 54 53 27 20 16 14 14 13 13 17 21 24 28 31 33 35 34 33 34 36 41 41 42 49 23 36 48 47 42 40 29 33 40
43 48 44 34 35 34 41 54 58 70 70 58 25 31 26 17 12 12 13 14 16 19 22 25 28 31 33 35 37 38 41 44 46 46 45 41 43 42 54 56 49 57 48 33
42 52 48 47 42 39 47 44 50 53 53 49 21 22 18 16 15 15 16 16 19 21 23 25 26 28 31 33 35 37 40 43 45 45 47 47 47 49 51 46 50 53 57 63
44 46 52 65 47 56 65 57 52 47 50 54 39 34 21 19 20 21 21 22 24 25 27 29 30 32 35 36 37 36 37 38 41 45 48 53 55 54 55 59 59 56 53 55
45 48 49 57 50 73 47 44 46 45 42 33 24 22 26 26 25 26 27 28 30 32 33 35 37 38 40 40 41 41 40 37 39 43 47 52 54 57 61 62 65 67 64 64
48 48 53 65 59 43 48 47 46 49 46 39 33 31 30 29 25 32 32 34 35 38 39 42 44 45 45 45 47 47 45 45 45 46 47 49 52 59 64 67 67 69 72 73
38 43 53 47 65 67 25 27 36 40 57 40 38 37 35 35 49 36 33 37 40 43 46 49 51 51 51 51 52 53 53 52 50 52 52 53 52 55 59 64 69 69 69 73
38 42 49 51 52 46 31 28 30 50 41 33 36 37 38 40 32 33 37 42 45 48 50 53 55 57 57 57 58 60 59 59 59 60 59 58 57 60 58 59 64 69 71 72
36 41 48 54 52 58 28 33 42 25 18 23 24 31 34 38 38 41 44 48 50 53 55 55 59 60 61 63 65 66 67 66 67 67 67 66 64 62 61 64 66 67 68 71
42 39 46 42 41 28 25 36 21 22 24 30 33 31 36 39 41 44 45 46 48 50 53 56 60 64 64 65 68 74 75 74 75 75 75 74 73 70 66 69 67 67 63 66
36 40 38 42 36 32 26 28 28 29 26 25 26 28 30 31 33 36 38 42 45 48 52 55 59 62 65 68 73 77 78 79 82 84 83 81 80 79 77 69 70 70 69 67
30 28 36 39 35 30 28 26 23 22 23 25 26 27 28 31 33 37 40 41 44 48 51 55 58 62 66 69 72 74 78 82 85 87 88 87 85 84 82 79 76 73 73 70
25 29 35 40 40 35 41 25 23 23 23 24 25 26 27 30 35 35 38 40 43 49 52 55 59 62 65 67 70 72 74 78 83 88 87 87 89 87 87 89 89 78 75 75
Wind_Direction
241 241 239 242 239 239 254 255 261 249 120 277 298 354 69 193 118 124 200 200 213 143 137 146 130 128 123 150 242 250 255 31 149 124 128 106 122 126 134 231 348 196 171 171
241 242 245 243 240 247 245 243 247 265 267 266 295 300 295 206 242 146 165 228 207 158 142 138 203 136 132 135 206 246 253 116 161 149 182 132 39 167 99 41 177 190 197 191
242 248 246 242 238 239 241 239 236 250 262 253 255 265 260 248 264 264 122 238 196 195 153 178 211 190 130 140 179 239 247 161 150 199 195 249 267 96 52 52 152 172 198 198
244 252 240 239 237 235 239 238 240 236 245 251 242 259 239 212 254 257 263 247 228 208 167 168 239 239 151 140 141 202 245 243 136 214 97 104 170 45 166 31 42 10 197 213
239 241 238 236 237 236 243 243 246 243 234 246 241 255 254 195 253 255 256 212 216 187 163 162 157 219 245 141 137 136 198 233 241 238 215 108 194 328 164 23 345 280 253 192
248 245 240 236 238 236 261 229 240 245 239 240 243 234 160 215 253 248 261 151 173 151 185 175 165 164 160 149 147 141 140 213 237 161 132 210 262 244 277 305 307 97 131 122
246 237 235 238 234 235 245 235 235 242 239 242 241 248 248 312 271 274 254 252 267 153 160 167 167 168 166 161 156 150 149 151 227 229 149 156 275 242 272 263 264 230 144 136
237 229 233 233 236 238 236 232 234 240 240 241 254 250 251 277 281 279 274 284 267 259 233 165 165 175 169 168 163 161 159 157 179 258 227 264 296 269 263 267 245 234 253 256
233 236 236 239 240 246 234 234 226 253 247 242 239 265 267 265 282 289 280 275 284 265 184 174 198 201 185 174 176 182 190 179 190 256 259 220 274 260 260 261 276 235 290 231
258 234 240 242 244 244 246 237 237 245 245 239 235 240 255 252 270 278 284 282 290 283 255 263 189 209 239 175 187 188 193 217 248 263 263 262 268 279 271 268 256 251 258 266
258 254 244 244 236 236 241 240 241 242 246 237 243 255 240 255 267 275 287 289 293 303 285 277 274 261 246 218 202 190 207 211 250 264 264 265 267 269 278 276 271 261 254 259
256 253 247 239 246 249 246 241 240 242 241 250 266 258 267 265 265 279 291 295 298 300 296 293 293 298 325 234 259 243 250 224 232 262 266 266 267 271 269 278 274 274 272 269
253 249 243 248 251 245 242 243 250 244 250 252 248 253 261 254 269 281 283 299 305 310 310 301 307 307 324 329 297 267 283 273 259 241 262 267 268 269 272 274 279 278 277 278
257 254 249 262 258 245 238 245 245 248 246 255 256 223 232 239 256 268 283 307 318 319 321 317 313 314 311 309 298 289 280 278 280 277 266 258 270 268 270 273 275 279 280 278
259 258 259 267 268 261 244 246 248 244 245 263 246 234 225 238 260 260 276 296 309 320 325 326 324 322 319 314 308 297 283 281 278 274 278 286 278 274 270 270 273 271 275 279
262 258 259 257 264 264 257 256 256 252 251 253 242 231 230 244 262 270 278 287 296 305 311 316 322 323 328 327 320 318 302 294 285 282 279 283 288 281 277 277 276 275 273 271
264 263 257 250 262 261 257 256 256 256 253 252 243 234 244 249 256 266 275 284 290 299 305 309 312 314 315 321 330 328 327 316 304 292 286 281 281 282 282 278 276 277 278 277
267 262 263 258 264 254 263 266 260 254 254 262 255 239 244 255 266 277 284 283 289 294 297 301 305 307 309 314 318 320 324 327 322 308 296 288 285 281 279 279 277 275 277 276
269 265 263 255 259 270 264 264 257 250 251 257 250 253 261 265 266 272 281 285 288 292 295 297 300 301 303 307 309 310 310 314 317 314 309 303 297 288 284 280 280 280 277 274
275 268 262 264 257 257 286 264 274 265 253 251 259 256 260 263 263 260 278 285 288 291 294 294 296 297 299 301 303 302 301 304 308 310 310 307 303 299 294 287 279 281 283 279
269 267 262 261 262 269 275 281 281 256 260 254 259 260 265 267 276 278 286 289 291 291 293 295 295 294 296 299 299 296 296 295 300 301 303 304 305 302 297 295 288 284 283 286
274 269 265 262 263 262 275 279 269 280 279 272 273 272 273 277 281 285 290 291 292 292 292 294 294 294 295 298 295 293 292 295 296 296 296 297 299 300 299 294 291 288 288 286
274 277 275 276 275 288 286 290 288 286 279 280 281 284 283 281 284 288 291 296 298 298 298 298 296 295 295 296 295 291 292 294 293 292 291 291 293 294 295 292 292 290 291 288
290 289 280 287 280 285 287 290 287 283 283 289 292 293 292 290 293 295 302 304 304 305 303 304 303 300 298 299 297 294 294 292 290 288 287 288 287 288 289 290 290 288 290 290
305 305 287 282 289 291 285 284 286 289 290 290 295 294 295 296 298 301 303 308 309 310 311 310 308 306 304 305 302 301 297 294 289 286 285 285 285 285 285 285 285 286 287 288
301 298 285 284 286 280 286 274 280 282 285 289 292 295 301 301 300 305 306 310 313 313 315 315 313 310 310 308 306 306 305 300 293 288 286 284 283 283 283 282 282 282 282 285